Dewpoint
59 59 61 61 62 61 61 61 60 60 60 61 62 61 61 61 61 60 60 61 60 59 60 59 59 59 60 60 61 58 58 57 57 58 60 60 59 60 60 61 61 61 60
60 60 61 61 62 61 61 61 58 59 59 59 61 61 61 61 60 60 60 60 61 60 59 59 58 62 60 60 60 59 59 59 58 57 59 58 58 59 60 60 60 61 60
60 61 61 61 61 61 61 61 60 59 59 59 59 60 61 61 60 60 61 60 61 61 61 61 60 61 60 60 60 60 60 60 59 58 57 59 59 60 59 59 59 59 59
59 60 60 60 61 61 61 61 60 60 58 59 61 61 60 59 59 59 59 60 61 61 62 61 61 60 60 60 60 60 60 59 59 58 57 58 58 58 58 56 56 57 55
59 61 60 60 61 61 61 60 60 59 59 61 60 59 59 59 59 59 61 61 61 61 61 61 61 60 60 60 61 60 59 58 57 57 56 56 56 56 55 56 54 54 53
60 60 60 60 60 61 61 60 60 61 61 61 60 59 58 57 50 52 57 61 62 61 59 60 60 58 57 56 56 56 58 58 57 56 55 55 55 54 55 54 53 52 49
59 60 60 60 60 60 61 60 60 60 60 60 59 59 57 55 47 47 51 62 62 61 59 60 60 59 59 57 53 53 53 52 54 56 55 55 54 55 55 54 52 50 50
58 58 58 58 59 60 61 60 59 59 59 60 59 58 57 53 46 46 50 61 60 62 60 60 61 60 59 59 59 58 59 58 58 58 57 56 55 56 54 52 52 51 50
57 57 58 58 58 59 60 61 61 61 59 60 59 57 55 53 47 46 56 61 60 61 61 60 60 59 50 51 59 58 58 57 52 50 50 49 48 49 52 57 51 49 50
56 57 57 58 59 60 61 60 60 59 59 61 59 57 54 54 48 46 53 60 59 59 58 57 51 55 48 50 58 57 57 57 57 57 55 51 52 51 50 57 52 51 51
54 56 58 59 61 61 61 61 61 59 60 59 59 58 57 55 54 46 51 60 59 59 58 56 53 47 47 48 52 57 57 57 55 57 57 55 56 56 57 58 56 54 52
56 56 59 60 61 62 61 61 61 59 59 58 59 58 58 57 51 48 50 55 55 58 57 56 51 46 46 47 54 45 47 54 58 58 55 54 53 55 57 59 59 55 55
55 57 59 60 61 62 61 61 61 60 59 59 58 57 57 57 55 47 49 50 52 57 58 52 45 45 45 47 46 48 52 59 58 57 56 55 55 57 58 56 55 55 54
57 57 58 58 61 62 62 62 61 60 59 59 59 59 58 56 56 57 56 53 49 51 48 49 50 50 50 52 52 54 59 58 58 57 57 57 57 57 55 54 52 51 49
57 56 58 58 58 59 58 58 60 59 59 59 59 59 58 57 58 55 56 57 56 53 53 54 54 54 55 57 57 57 59 58 58 58 56 56 57 58 56 54 51 50 47
56 56 57 58 58 57 51 49 43 43 42 49 51 57 58 52 48 48 49 47 46 47 56 55 54 55 56 57 57 57 57 57 58 57 55 56 56 56 55 53 51 49 47
54 56 55 56 57 57 53 50 48 48 43 44 48 48 49 50 46 46 46 45 45 48 57 56 55 54 55 56 57 57 56 56 57 56 56 55 55 55 52 53 51 49 48
53 49 55 55 56 56 55 53 50 49 49 51 46 48 46 45 45 44 43 46 51 51 57 56 56 54 53 54 54 54 54 55 54 55 55 54 53 53 50 51 51 49 48
53 53 53 53 54 54 54 53 52 51 50 51 51 47 42 42 43 42 43 57 56 56 56 56 56 56 54 53 53 53 53 54 53 54 53 52 52 50 49 49 49 43 44
51 48 50 51 54 54 54 53 51 51 51 50 52 53 48 47 51 51 52 57 57 56 56 56 56 56 56 54 53 53 52 52 52 52 54 52 51 51 49 48 48 47 46
50 49 46 52 50 52 51 53 54 51 50 50 50 52 45 53 54 54 54 56 57 57 56 56 56 55 53 53 53 53 52 52 53 52 52 53 52 50 50 49 48 48 47
51 50 50 49 50 49 49 50 52 53 51 49 50 49 41 55 55 55 56 56 57 56 53 55 54 52 48 50 50 49 49 51 53 53 53 53 53 52 51 50 50 49 48
51 52 50 49 48 46 46 47 49 49 52 52 50 49 48 53 53 53 54 55 56 55 54 53 52 49 48 48 51 49 47 46 47 52 53 54 53 53 52 51 50 50 48
49 51 51 50 49 48 50 47 46 44 47 48 52 49 48 48 49 50 51 52 53 52 52 51 51 51 50 50 49 50 52 51 51 49 50 50 53 50 52 52 51 50 49
55 52 51 51 50 48 48 49 47 45 46 46 47 49 48 48 48 48 48 48 49 51 52 52 52 50 48 48 49 51 44 38 48 46 52 51 50 51 51 52 51 49 41
59 58 54 54 51 50 49 49 48 47 45 46 46 49 49 49 49 50 50 48 48 49 49 50 49 49 49 48 48 44 40 37 39 38 49 51 51 51 51 50 50 46 40
Lifted_Index
-1 -1 -1 -1 -1 -1 -1 -1 -0 0 0 -0 -0 -1 -0 -0 -0 -0 -0 0 1 1 1 1 0 -1 -1 -1 -1 -1 -1 -1 -0 -0 -1 -1 -1 -1 -0 1 2 3 4
-1 -1 -1 -1 -1 -1 -1 -0 0 0 0 0 -0 -0 -0 -0 -0 -0 -0 0 0 1 1 1 0 -0 -1 -1 -1 -1 -1 -1 -0 -0 -1 -1 -1 -0 1 2 3 3 4
-1 -1 -1 -1 -1 -1 -1 -0 0 0 0 0 -0 -0 0 0 0 -0 -0 -0 -0 0 1 1 1 0 -0 -0 -0 -0 -0 -0 -0 -0 -0 -0 0 1 2 2 3 3 4
-1 -1 -1 -1 -1 -1 -0 -0 -0 0 0 0 -0 0 0 1 0 -0 -0 -1 -0 -0 0 1 1 1 1 1 1 1 1 1 1 0 0 0 1 2 3 3 3 4 4
-1 -1 -1 -0 -0 -0 -0 -0 -0 -0 -0 -0 0 1 1 1 1 0 -0 -1 -0 -0 0 1 1 1 1 1 1 1 2 2 2 2 2 2 2 3 3 4 4 4 4
-1 -1 -1 -0 -0 -0 -0 -0 -0 -0 -0 -0 0 1 1 1 1 0 -0 -1 -0 -0 0 1 1 1 1 1 2 2 2 2 3 3 3 3 3 3 3 4 4 4 4
-1 -1 -1 -0 -0 -0 -0 0 0 -0 -0 -0 0 1 1 1 1 0 -0 -1 -0 0 1 1 1 1 1 1 2 2 2 2 3 3 3 3 3 3 3 3 3 4 4
-1 -1 -1 -1 -0 -0 -0 0 0 0 -0 -0 0 1 1 1 0 -0 -0 -0 -0 0 1 1 1 1 1 2 2 2 3 3 3 4 3 3 3 3 3 3 4 5 6
-1 -1 -1 -1 -1 -1 -0 0 0 1 0 0 0 1 2 1 0 -0 -0 0 0 1 1 2 2 2 2 2 2 3 3 4 4 4 3 3 3 3 3 4 5 6 7
-1 -1 -1 -1 -1 -1 -1 -0 0 1 1 0 1 1 2 1 1 0 0 0 1 1 1 2 2 2 2 2 2 3 3 4 4 4 3 3 3 4 4 4 5 6 6
-1 -1 -1 -1 -1 -1 -1 -1 -0 1 1 1 1 1 2 2 1 0 0 1 1 1 2 2 3 3 3 2 2 2 3 3 4 4 3 3 3 3 3 3 4 5 5
-1 -1 -1 -1 -2 -2 -1 -1 -1 1 1 2 1 2 2 2 1 0 0 1 1 2 2 3 3 3 3 2 2 2 3 3 3 3 3 3 3 3 2 2 2 3 3
-1 -1 -1 -2 -2 -2 -2 -1 -1 0 1 1 2 2 2 2 1 0 0 1 2 2 2 3 3 3 2 2 2 2 2 2 3 3 3 3 3 2 1 1 1 2 2
-2 -1 -1 -2 -2 -2 -2 -2 -1 -1 -0 1 1 1 2 2 1 1 0 1 2 2 2 2 3 2 2 2 2 2 2 2 2 2 3 3 2 1 1 1 1 1 1
-2 -1 -1 -1 -2 -2 -2 -2 -2 -1 -1 -1 -0 1 1 1 1 1 0 0 1 2 2 2 2 2 2 2 2 2 2 2 2 2 2 2 1 1 1 1 1 2 2
-1 -1 -1 -1 -1 -1 -1 -1 -1 -1 -1 -1 -1 0 1 1 1 0 -0 0 1 2 2 2 2 2 2 2 2 2 1 1 1 1 1 1 1 1 1 1 2 2 2
-1 -1 -1 -1 -1 -1 -1 -1 -1 -1 -1 -1 -1 -0 0 1 1 1 0 1 1 2 2 2 2 2 2 2 2 1 1 1 1 1 1 1 2 2 2 2 2 2 3
-1 -1 -1 -1 -1 -1 -1 -0 0 0 -0 -1 -1 -1 -0 0 1 1 1 1 2 2 1 1 2 2 2 2 2 2 1 1 1 1 1 1 1 1 2 2 2 3 4
-0 -0 -0 -0 -1 -1 -1 -0 1 1 1 1 0 -0 -1 -0 0 0 0 1 1 1 1 1 1 1 2 2 2 2 1 1 1 1 1 1 1 1 2 3 3 4 4
0 0 0 0 -0 -0 -0 -0 0 1 1 1 1 1 0 0 0 0 0 0 1 1 1 0 0 0 1 1 1 1 2 1 1 1 1 1 1 1 2 2 3 4 4
0 0 0 1 1 0 0 -0 -0 -0 -0 0 0 1 1 1 1 1 1 1 0 0 0 0 0 -0 -0 0 0 1 1 1 1 1 1 1 1 1 2 2 3 3 3
-0 -0 0 1 1 1 1 1 0 -0 -0 -0 -0 0 1 1 2 2 2 1 1 1 1 1 1 1 1 1 1 1 1 1 1 1 1 1 1 1 1 2 2 2 3
-1 -1 -0 0 1 1 1 1 1 1 0 -0 -0 -0 0 1 2 2 2 2 2 2 2 2 2 2 2 2 2 2 2 1 1 1 1 1 1 1 1 1 1 2 2
-1 -1 -1 -1 -0 0 0 1 1 1 1 1 1 0 0 1 1 2 2 3 3 3 3 4 4 3 3 3 3 3 2 2 2 2 2 2 2 2 1 1 1 1 2
-2 -2 -2 -2 -1 -1 -1 -0 0 1 2 2 2 1 1 1 1 2 2 2 3 3 3 4 4 4 4 3 3 3 3 2 2 2 2 2 2 2 2 2 2 1 1
-2 -2 -2 -2 -2 -2 -1 -1 -0 0 1 2 2 2 2 2 2 2 2 2 2 3 3 3 4 5 5 4 4 4 3 2 2 2 2 2 2 2 2 2 2 1 1